Find Starlink 32092

NORAD ID: 59700 Int'l Des: 2024-086 Owner: SPXS Country: US Constellation: starlink operational
LEOCIRCULAR

Live Position

Loading 3D Globe...

About Starlink 32092

Description loading...

Upcoming Passes

Passes for default location (London). Set your location on the main map for personalized predictions.

Altitude History

Loading altitude history...

Two-Line Element Set

1 59700U 24086U 26125.39734082 -.00000086 00000-0 64088-5 0 9999
2 59700 43.0030 99.7422 0001341 266.9205 93.1493 15.27587364112781
Epoch: May 5, 2026 • Age: 14 hours

Current Status

Altitude 493.1 km
Velocity 7.62 km/s
Sub-Earth Point -37.19°S, 172.2°W
Launch Date May 8, 2024
Age 1.9 years
Type internet

Technical Details

Classification Payload
Mass 730.00 kg
Dry Mass 700.00 kg
Total Mass 730.00 kg
Length 0.30 m
Diameter 4.10 m
Span 29.00 m
Shape Box + pan
Manufacturer SPXS
Bus Type Starlink V2M
Phase Status In Orbit
Owner/State SPXS/US

Most Searched